Location: Hilton Head Island
(32.2163°N, 80.7526°W)
Time: 02:17:41
(UTC-04:00)

Vanguard 2 Rocket - Pass Details

Date: 22 February 2026
Orbit: 553 x 3286 km, 32.9° (Epoch: 9 March)

Event Time Altitude Azimuth Distance (km) Brightness Sun altitude
Rises 10:20:17 0° 231° (SW) 6,673 11.3 36.7°
Reaches altitude 10° 10:24:26 10° 229° (SW) 5,879 11.1 37.3°
Maximum altitude 10:43:39 64° 152° (SSE) 3,486 11.3 39.9°
Drops below altitude 10° 11:01:06 10° 77° (ENE) 5,427 11.2 42.0°
Sets 11:04:44 0° 74° (ENE) 6,160 11.3 42.4°
